Spearfish, SD

11:37 PM MDT on May 26, 2017 (GMT -0600)
Black Hills-Ice

Weather History for KSPF - February, 2013

Change the Weather History Date:

Saturday, February 2, 2013

  Actual Average (KEFC) Record (KEFC)
Temperature  
Mean Temperature 36 °F -  
Max Temperature 39 °F 34 °F 63 °F (1962)
Min Temperature 32 °F 8 °F -25 °F (1989)
Degree Days  
Heating Degree Days 30    
Moisture  
Dew Point 22 °F    
Average Humidity 59    
Maximum Humidity 81    
Minimum Humidity 45    
Precipitation  
Precipitation 0.00 in - - ()
Sea Level Pressure  
Sea Level Pressure 30.14 in    
Wind  
Wind Speed 17 mph (West)    
Max Wind Speed 24 mph    
Max Gust Speed 36 mph    
Visibility 10 miles    
Events      
Averages and records for this station are not official NWS values.
T = Trace of Precipitation, MM = Missing Value Source: NWS Daily Summary

Daily Weather History Graph

Daily Weather History Graph

Search for Another Location

Airport or City:

Trip Planner

Search our weather history database for the weather conditions in past years. The results will help you decide how hot, cold, wet, or windy it might be!

Date:

Astronomy

Feb. 02, 2013 Rise Set
Actual Time 8:12 AM CST 6:06 PM CST
Civil Twilight 7:41 AM CST 6:37 PM CST
Nautical Twilight 7:06 AM CST 7:11 PM CST
Astronomical Twilight 6:32 AM CST 7:45 PM CST
Moon 12:32 AM CST (2/2) 11:05 AM CST (2/2)
Length of Visible Light 10h 55m
Length of Day
9h 54m
Waning Gibbous, 59% of the Moon is Illuminated
Feb 2
Waning Gibbous
Feb 3
Last Quarter
Feb 10
New
Feb 17
First Quarter
Feb 25
Full

Hourly Weather History & Observations

Time (CST) Temp. Windchill Dew Point Humidity Pressure Visibility Wind Dir Wind Speed Gust Speed Precip Events Conditions
12:35 AM 33.8 °F 24.3 °F 28.4 °F 81% 30.10 in 10.0 mi West 13.8 mph 24.2 mph N/A   Overcast
12:55 AM 33.8 °F 23.5 °F 28.4 °F 81% 30.10 in 10.0 mi West 16.1 mph 21.9 mph N/A   Overcast
1:35 AM 33.8 °F 23.9 °F 26.6 °F 75% 30.11 in 10.0 mi West 15.0 mph 20.7 mph N/A   Mostly Cloudy
1:55 AM 33.8 °F 23.2 °F 26.6 °F 75% 30.10 in 10.0 mi West 17.3 mph 21.9 mph N/A   Scattered Clouds
2:15 AM 33.8 °F 22.8 °F 24.8 °F 70% 30.10 in 10.0 mi West 18.4 mph 25.3 mph N/A   Scattered Clouds
2:35 AM 33.8 °F 23.9 °F 24.8 °F 70% 30.11 in 10.0 mi West 15.0 mph 20.7 mph N/A   Partly Cloudy
2:55 AM 33.8 °F 23.9 °F 24.8 °F 70% 30.11 in 10.0 mi West 15.0 mph 20.7 mph N/A   Clear
3:15 AM 33.8 °F 23.9 °F 23.0 °F 65% 30.11 in 10.0 mi West 15.0 mph 21.9 mph N/A   Scattered Clouds
3:35 AM 33.8 °F 23.2 °F 24.8 °F 70% 30.11 in 10.0 mi West 17.3 mph 25.3 mph N/A   Scattered Clouds
3:55 AM 33.8 °F 23.2 °F 23.0 °F 65% 30.11 in 10.0 mi West 17.3 mph 24.2 mph N/A   Scattered Clouds
4:15 AM 33.8 °F 23.5 °F 23.0 °F 65% 30.11 in 10.0 mi West 16.1 mph 21.9 mph N/A   Scattered Clouds
4:55 AM 33.8 °F 23.2 °F 23.0 °F 65% 30.11 in 10.0 mi West 17.3 mph 25.3 mph N/A   Clear
5:15 AM 33.8 °F 23.5 °F 23.0 °F 65% 30.11 in 10.0 mi West 16.1 mph 23.0 mph N/A   Clear
5:35 AM 33.8 °F 24.3 °F 23.0 °F 65% 30.11 in 10.0 mi West 13.8 mph 23.0 mph N/A   Clear
5:55 AM 33.8 °F 23.9 °F 21.2 °F 60% 30.11 in 10.0 mi West 15.0 mph 21.9 mph N/A   Clear
6:15 AM 33.8 °F 23.5 °F 21.2 °F 60% 30.11 in 10.0 mi West 16.1 mph 25.3 mph N/A   Clear
6:35 AM 33.8 °F 23.2 °F 21.2 °F 60% 30.10 in 10.0 mi West 17.3 mph 24.2 mph N/A   Partly Cloudy
6:55 AM 33.8 °F 23.5 °F 19.4 °F 56% 30.11 in 10.0 mi West 16.1 mph 26.5 mph N/A   Partly Cloudy
7:15 AM 33.8 °F 23.9 °F 19.4 °F 56% 30.10 in 10.0 mi West 15.0 mph 23.0 mph N/A   Clear
7:35 AM 33.8 °F 24.3 °F 19.4 °F 56% 30.10 in 10.0 mi West 13.8 mph 23.0 mph N/A   Clear
7:55 AM 33.8 °F 23.2 °F 19.4 °F 56% 30.11 in 10.0 mi West 17.3 mph 25.3 mph N/A   Clear
8:15 AM 33.8 °F 24.3 °F 19.4 °F 56% 30.10 in 10.0 mi West 13.8 mph - N/A   Clear
8:35 AM 35.6 °F 25.5 °F 19.4 °F 52% 30.11 in 10.0 mi West 17.3 mph 23.0 mph N/A   Clear
8:55 AM 35.6 °F 26.2 °F 19.4 °F 52% 30.11 in 10.0 mi West 15.0 mph 25.3 mph N/A   Clear
9:15 AM 35.6 °F 25.2 °F 19.4 °F 52% 30.12 in 10.0 mi West 18.4 mph 26.5 mph N/A   Clear
9:35 AM 35.6 °F 26.2 °F 19.4 °F 52% 30.11 in 10.0 mi WSW 15.0 mph 23.0 mph N/A   Clear
9:55 AM 37.4 °F 27.5 °F 19.4 °F 48% 30.12 in 10.0 mi West 18.4 mph 24.2 mph N/A   Clear
10:35 AM 37.4 °F 27.2 °F 19.4 °F 48% 30.12 in 10.0 mi West 19.6 mph 32.2 mph N/A   Clear
10:55 AM 37.4 °F 27.2 °F 19.4 °F 48% 30.13 in 10.0 mi West 19.6 mph 35.7 mph N/A   Clear
11:15 AM 37.4 °F 26.9 °F 19.4 °F 48% 30.13 in 10.0 mi West 20.7 mph 28.8 mph N/A   Partly Cloudy
11:35 AM 39.2 °F 28.5 °F 19.4 °F 45% 30.14 in 10.0 mi West 24.2 mph 31.1 mph N/A   Clear
11:55 AM 39.2 °F 28.7 °F 19.4 °F 45% 30.15 in 10.0 mi WNW 23.0 mph 32.2 mph N/A   Clear
12:15 PM 39.2 °F 29.3 °F 19.4 °F 45% 30.15 in 10.0 mi West 20.7 mph 34.5 mph N/A   Scattered Clouds
12:35 PM 39.2 °F 29.0 °F 21.2 °F 49% 30.15 in 10.0 mi West 21.9 mph 31.1 mph N/A   Mostly Cloudy
12:55 PM 39.2 °F 28.7 °F 21.2 °F 49% 30.15 in 10.0 mi West 23.0 mph 32.2 mph N/A   Mostly Cloudy
1:15 PM 37.4 °F 26.4 °F 21.2 °F 52% 30.15 in 10.0 mi WNW 23.0 mph 35.7 mph N/A   Overcast
1:35 PM 37.4 °F 26.1 °F 21.2 °F 52% 30.15 in 10.0 mi WNW 24.2 mph 35.7 mph N/A   Overcast
1:55 PM 37.4 °F 27.8 °F 23.0 °F 56% 30.16 in 10.0 mi WNW 17.3 mph 29.9 mph N/A   Overcast
2:15 PM 37.4 °F 26.6 °F 23.0 °F 56% 30.16 in 10.0 mi West 21.9 mph 28.8 mph N/A   Overcast
2:35 PM 37.4 °F 26.1 °F 23.0 °F 56% 30.16 in 10.0 mi West 24.2 mph 29.9 mph N/A   Overcast
2:55 PM 39.2 °F 29.0 °F 23.0 °F 52% 30.17 in 10.0 mi WNW 21.9 mph 34.5 mph N/A   Mostly Cloudy
3:15 PM 39.2 °F 29.0 °F 23.0 °F 52% 30.17 in 10.0 mi West 21.9 mph 29.9 mph N/A   Overcast
3:35 PM 39.2 °F 28.5 °F 23.0 °F 52% 30.18 in 10.0 mi West 24.2 mph 35.7 mph N/A   Overcast
3:55 PM 39.2 °F 28.5 °F 23.0 °F 52% 30.19 in 10.0 mi WNW 24.2 mph 34.5 mph N/A   Overcast
4:15 PM 39.2 °F 28.7 °F 23.0 °F 52% 30.19 in 10.0 mi WNW 23.0 mph 28.8 mph N/A   Overcast
4:35 PM 37.4 °F 26.6 °F 21.2 °F 52% 30.20 in 10.0 mi WNW 21.9 mph 33.4 mph N/A   Overcast
4:55 PM 39.2 °F 29.3 °F 21.2 °F 49% 30.19 in 10.0 mi WNW 20.7 mph 26.5 mph N/A   Overcast
5:15 PM 37.4 °F 27.2 °F 21.2 °F 52% 30.19 in 10.0 mi WNW 19.6 mph 29.9 mph N/A   Mostly Cloudy
5:35 PM 37.4 °F 26.4 °F 21.2 °F 52% 30.19 in 10.0 mi WNW 23.0 mph 32.2 mph N/A   Mostly Cloudy
5:55 PM 37.4 °F 27.2 °F 23.0 °F 56% 30.19 in 10.0 mi WNW 19.6 mph 27.6 mph N/A   Scattered Clouds
6:15 PM 35.6 °F 25.9 °F 23.0 °F 60% 30.20 in 10.0 mi WNW 16.1 mph 24.2 mph N/A   Partly Cloudy
6:35 PM 35.6 °F 24.8 °F 23.0 °F 60% 30.20 in 10.0 mi WNW 19.6 mph 27.6 mph N/A   Clear
7:15 PM 33.8 °F 24.8 °F 23.0 °F 65% 30.20 in 10.0 mi WNW 12.7 mph 18.4 mph N/A   Partly Cloudy
7:35 PM 33.8 °F 23.5 °F 21.2 °F 60% 30.20 in 10.0 mi WNW 16.1 mph 21.9 mph N/A   Partly Cloudy
7:55 PM 33.8 °F 24.8 °F 19.4 °F 56% 30.20 in 10.0 mi WNW 12.7 mph 20.7 mph N/A   Clear
8:15 PM 32.0 °F 22.5 °F 19.4 °F 60% 30.19 in 10.0 mi West 12.7 mph 19.6 mph N/A   Clear
8:35 PM 32.0 °F 23.0 °F 21.2 °F 64% 30.18 in 10.0 mi West 11.5 mph - N/A   Clear
8:55 PM 32.0 °F 23.0 °F 23.0 °F 69% 30.18 in 10.0 mi West 11.5 mph - N/A   Clear
9:15 PM 32.0 °F 23.6 °F 23.0 °F 69% 30.17 in 10.0 mi West 10.4 mph - N/A   Clear
9:35 PM 32.0 °F 24.2 °F 23.0 °F 69% 30.17 in 10.0 mi West 9.2 mph - N/A   Clear
9:55 PM 32.0 °F 25.6 °F 23.0 °F 69% 30.17 in 10.0 mi West 6.9 mph - N/A   Clear
10:35 PM 32.0 °F 24.2 °F 23.0 °F 69% 30.15 in 10.0 mi West 9.2 mph - N/A   Clear
10:55 PM 32.0 °F 23.0 °F 23.0 °F 69% 30.14 in 10.0 mi West 11.5 mph - N/A   Clear
11:15 PM 32.0 °F 24.2 °F 23.0 °F 69% 30.15 in 10.0 mi West 9.2 mph - N/A   Clear
11:35 PM 32.0 °F 23.6 °F 23.0 °F 69% 30.15 in 10.0 mi WSW 10.4 mph - N/A   Clear
11:55 PM 32.0 °F 24.8 °F 23.0 °F 69% 30.15 in 10.0 mi West 8.1 mph - N/A   Clear